Stations météo

réclame
Mon MeteoGroup
Ronneby, Suède (2664): Température de l'air & dewpoint: 17.10.2018 22:00:00 - 23.10.2018 22:00:00 (CEST)Ronneby, Suède (2664): Vitesse du vent & gusts: 17.10.2018 22:00:00 - 23.10.2018 22:00:00 (CEST)Ronneby, Suède (2664): Direction du vent: 17.10.2018 22:00:00 - 23.10.2018 22:00:00 (CEST)Ronneby, Suède (2664): reduced air pressure: 17.10.2018 22:00:00 - 23.10.2018 22:00:00 (CEST)Ronneby, Suède (2664): visibility: 17.10.2018 22:00:00 - 23.10.2018 22:00:00 (CEST)Ronneby, Suède (2664): Quantités de précipitations: 17.10.2018 22:00:00 - 23.10.2018 22:00:00 (CEST)
Date & Time tt [°C] td [°C] ff [km/h] ff [knt] fx [km/h] fx [knt] dd ppp [hPa] vv [km] rr [mm]
23.10.2018 22:00:00 4,8 3,6 11 6 43 23 NNW 997,3 10 1,0
23.10.2018 21:00:00 6,2 4,0 16 9 43 23 WNW 996,4 10 2,0
23.10.2018 20:00:00 8,1 5,0 13 7 22 12 WNW 995,1 10 0,0
23.10.2018 19:00:00 7,2 5,8 8 4 32 18 WNW 994,9 10 0,0
23.10.2018 18:00:00 8,2 5,8 16 9 40 21 NW 994,4 10 0,4
23.10.2018 17:00:00 10,1 6,6 15 8 40 21 WNW 993,5 10 0,0
23.10.2018 16:00:00 12,0 7,1 21 11 43 23 WNW 993,3 10 0,0
23.10.2018 15:00:00 11,4 7,5 22 12 43 23 WNW 993,4 10 0,0
23.10.2018 14:00:00 11,8 8,6 24 13 47 25 WNW 993,9 10 0,0
23.10.2018 13:00:00 10,8 8,7 26 14 43 23 WNW 994,2 10 0,0
23.10.2018 12:00:00 8,2 7,1 16 9 40 21 WNW 994,9 10 3,0
23.10.2018 11:00:00 9,5 8,9 18 10 32 18 W 995,1 10 2,0
23.10.2018 10:00:00 9,6 9,0 18 10 32 18 W 995,9 10 0,6
23.10.2018 09:00:00 9,4 8,8 21 11 36 19 W 996,7 10 1,0
23.10.2018 08:00:00 8,7 8,3 21 11 40 21 WSW 998,1 10 0,3
23.10.2018 07:00:00 8,3 7,7 22 12 40 21 WSW 999,8 10 0,1
23.10.2018 06:00:00 7,9 7,3 21 11 40 21 WSW 1002,5 10 0,2
23.10.2018 05:00:00 7,4 7,0 21 11 40 21 SW 1004,8 10 0,4
23.10.2018 04:00:00 6,8 6,2 18 10 36 19 SW 1007,9 10 1,0
23.10.2018 03:00:00 6,9 6,2 18 10 32 18 SW 1011,0 9 0,7
23.10.2018 02:00:00 7,3 4,9 16 9 32 18 WSW 1013,6 10 0,1
23.10.2018 01:00:00 7,8 4,4 18 10 32 18 WSW 1015,4 10 0,0
23.10.2018 00:00:00 7,9 4,3 16 9 25 14 W 1017,0 10 0,0
22.10.2018 23:00:00 7,8 4,6 15 8 25 14 WSW 1018,7 10 0,0
22.10.2018 22:00:00 7,3 4,3 13 7 25 14 W 1019,7 10 0,0
22.10.2018 21:00:00 6,7 3,8 11 6 22 12 WSW 1020,4 10 0,0
22.10.2018 20:00:00 7,6 3,8 13 7 25 14 W 1020,7 10 0,0
22.10.2018 19:00:00 8,4 3,6 13 7 25 14 W 1021,3 10 0,0
22.10.2018 18:00:00 9,2 3,0 16 9 32 18 WNW 1021,3 10 0,0
22.10.2018 17:00:00 10,4 2,7 21 11 36 19 WNW 1021,1 10 0,0
22.10.2018 16:00:00 11,5 2,5 28 15 43 23 WNW 1020,9 10 0,0
22.10.2018 15:00:00 11,8 2,3 28 15 43 23 WNW 1020,2 10 0,0
22.10.2018 14:00:00 11,8 2,8 26 14 43 23 NW 1020,3 10 0,0
22.10.2018 13:00:00 11,8 3,8 22 12 43 23 WNW 1020,2 10 0,0
22.10.2018 12:00:00 11,3 4,1 28 15 43 23 WNW 1020,4 10 0,0
22.10.2018 11:00:00 10,9 5,6 18 10 43 23 WNW 1020,2 10 0,0
22.10.2018 10:00:00 10,2 6,5 16 9 32 18 WNW 1020,4 10 0,0
22.10.2018 09:00:00 9,3 6,9 15 8 36 19 WNW 1020,0 10 0,0
22.10.2018 08:00:00 9,9 7,0 21 11 36 19 WNW 1019,5 10 0,0
22.10.2018 07:00:00 11,1 8,8 21 11 32 18 WNW 1018,7 10 0,0
22.10.2018 06:00:00 11,8 10,9 13 7 25 14 W 1018,4 10 0,0
22.10.2018 05:00:00 11,9 11,6 9 5 22 12 WSW 1018,2 2,8 0,0
22.10.2018 04:00:00 11,7 11,4 11 6 22 12 SW 1018,3 3,3 0,0
22.10.2018 03:00:00 12,0 11,5 13 7 25 14 WSW 1018,7 3,8 0,0
22.10.2018 02:00:00 11,8 11,3 15 8 25 14 SW 1019,2 2,8 0,0
22.10.2018 01:00:00 12,0 11,4 15 8 22 12 SW 1019,8 4,7 0,0
22.10.2018 00:00:00 11,7 11,2 15 8 25 14 SW 1020,5 2,4 0,0
21.10.2018 23:00:00 11,8 11,2 15 8 29 16 SW 1020,9 8 0,0
21.10.2018 22:00:00 11,7 11,1 16 9 29 16 SW 1021,2 10 0,0
21.10.2018 21:00:00 11,3 10,5 15 8 25 14 SW 1021,9 10 0,0
21.10.2018 20:00:00 11,3 10,0 13 7 22 12 SW 1022,6 10 0,0
21.10.2018 19:00:00 11,4 10,0 13 7 25 14 SW 1022,9 10 0,0
21.10.2018 18:00:00 11,3 9,7 13 7 25 14 SSW 1023,0 10 0,0
21.10.2018 17:00:00 11,5 9,4 13 7 22 12 SSW 1023,3 10 0,0
21.10.2018 16:00:00 11,6 8,5 13 7 22 12 SW 1023,9 10 0,0
21.10.2018 15:00:00 11,7 8,2 11 6 25 14 SW 1024,4 10 0,0
21.10.2018 14:00:00 11,9 8,7 13 7 25 14 SW 1024,9 10 0,0
21.10.2018 13:00:00 11,5 8,5 11 6 22 12 WSW 1025,6 10 0,0
21.10.2018 12:00:00 11,2 9,5 13 7 22 12 WSW 1026,0 10 0,0
21.10.2018 11:00:00 8,7 8,7 5 3 11 6 SSW 1026,2 10 0,0
21.10.2018 10:00:00 4,7 4,7 0 0 0 0 N 1026,6 0,9 0,0
21.10.2018 09:00:00 -0,2 -0,2 0 0 4 2 N 1026,8 10 0,0
21.10.2018 08:00:00 -1,2 -1,2 2 1 4 2 NE 1026,5 0,9 0,0
21.10.2018 07:00:00 -1,2 -1,2 0 0 4 2 N 1026,6 0,4 0,0
21.10.2018 06:00:00 -1,2 -1,2 0 0 4 2 N 1026,6 0,4 0,0
21.10.2018 05:00:00 -1,0 -1,0 2 1 7 4 NW 1026,5 0,1 0,0
21.10.2018 04:00:00 -1,1 -1,1 8 4 7 4 NNE 1026,6 0,3 0,0
21.10.2018 03:00:00 -0,9 -0,9 0 0 7 4 N 1026,4 0,2 0,0
21.10.2018 02:00:00 0,2 0,2 0 0 4 2 N 1026,3 0,3 0,0
21.10.2018 01:00:00 0,5 0,5 0 0 7 4 N 1026,3 0,6 0,0
21.10.2018 00:00:00 1,4 1,3 0 0 0 0 N 1026,3 0,5 0,0
20.10.2018 23:00:00 2,4 2,4 0 0 4 2 N 1026,1 4,5 0,0
20.10.2018 22:00:00 2,7 2,6 0 0 4 2 N 1025,9 10 0,0
20.10.2018 21:00:00 4,9 4,9 0 0 4 2 N 1025,5 7 0,0
20.10.2018 20:00:00 5,6 5,5 0 0 4 2 N 1025,2 5 0,0
20.10.2018 19:00:00 7,4 7,0 2 1 7 4 SSW 1024,8 10 0,0
20.10.2018 18:00:00 9,8 8,2 4 2 7 4 SSW 1024,6 10 0,0
20.10.2018 17:00:00 10,8 8,0 0 0 7 4 N 1024,2 10 0,0
20.10.2018 16:00:00 11,4 8,4 4 2 14 8 - 1024,0 10 0,0
20.10.2018 15:00:00 10,6 8,2 8 4 14 8 W 1024,1 10 0,0
20.10.2018 14:00:00 10,3 7,7 11 6 18 10 W 1024,1 10 0,0
20.10.2018 13:00:00 9,8 7,7 8 4 14 8 W 1024,1 10 0,0
20.10.2018 12:00:00 9,7 7,8 9 5 14 8 W 1024,4 10 0,0
20.10.2018 11:00:00 8,5 7,6 5 3 11 6 W 1024,4 10 0,1
20.10.2018 10:00:00 7,3 7,0 4 2 7 4 WNW 1024,0 10 0,0
20.10.2018 09:00:00 6,0 6,0 4 2 7 4 W 1023,9 10 0,0
20.10.2018 08:00:00 3,8 3,8 2 1 4 2 WNW 1023,8 1,0 0,0
20.10.2018 07:00:00 4,9 4,9 0 0 4 2 N 1023,4 10 0,0
20.10.2018 06:00:00 4,6 4,5 0 0 0 0 N 1023,4 10 0,0
20.10.2018 05:00:00 4,6 4,5 0 0 7 4 N 1023,4 10 0,0
20.10.2018 04:00:00 4,4 4,3 5 3 7 4 W 1023,7 9 0,2
20.10.2018 03:00:00 1,3 1,2 0 0 0 0 N 1023,7 10 0,0
20.10.2018 02:00:00 1,9 1,8 0 0 7 4 N 1023,8 10 0,0
20.10.2018 01:00:00 2,4 2,3 5 3 7 4 W 1023,9 10 0,0
20.10.2018 00:00:00 2,8 2,5 0 0 4 2 N 1024,0 10 0,0
19.10.2018 23:00:00 1,4 1,0 2 1 4 2 N 1024,2 10 0,0
19.10.2018 22:00:00 0,8 0,7 2 1 4 2 WNW 1024,6 10 0,0
19.10.2018 21:00:00 2,3 2,2 0 0 4 2 N 1024,4 10 0,0
19.10.2018 20:00:00 3,2 3,0 4 2 4 2 NNE 1024,0 10 0,0
19.10.2018 19:00:00 5,0 4,6 0 0 4 2 N 1024,0 10 0,0
19.10.2018 18:00:00 7,1 4,7 4 2 11 6 SSW 1024,0 10 0,0
19.10.2018 17:00:00 10,1 5,5 9 5 14 8 SW 1024,0 10 0,0
19.10.2018 16:00:00 11,3 5,8 9 5 18 10 SW 1024,2 10 0,0
19.10.2018 15:00:00 12,1 4,1 11 6 18 10 SW 1024,5 10 0,0
19.10.2018 14:00:00 12,4 3,6 9 5 14 8 SSW 1024,9 10 0,0
19.10.2018 13:00:00 11,9 3,6 5 3 11 6 SW 1025,1 10 0,0
19.10.2018 12:00:00 10,6 4,5 4 2 7 4 - 1025,4 10 0,0
19.10.2018 11:00:00 8,0 6,0 0 0 4 2 N 1025,4 10 0,0
19.10.2018 10:00:00 3,6 3,2 2 1 7 4 N 1025,5 10 0,0
19.10.2018 09:00:00 0,1 0,0 5 3 7 4 N 1025,3 10 0,0
19.10.2018 08:00:00 -1,7 -1,8 4 2 7 4 N 1025,0 10 0,0
19.10.2018 07:00:00 -1,3 -1,4 4 2 7 4 N 1024,8 10 0,0
19.10.2018 06:00:00 -1,4 -1,5 5 3 7 4 N 1024,7 10 0,0
19.10.2018 05:00:00 -0,9 -1,0 5 3 7 4 WNW 1024,7 10 0,0
19.10.2018 04:00:00 -0,9 -1,0 4 2 7 4 N 1024,4 10 0,0
19.10.2018 03:00:00 -0,3 -0,4 4 2 7 4 - 1024,3 10 0,0
19.10.2018 02:00:00 -0,2 -0,3 5 3 7 4 N 1024,3 10 0,0
19.10.2018 01:00:00 1,4 1,3 2 1 7 4 - 1024,4 10 0,0
19.10.2018 00:00:00 1,7 1,1 5 3 11 6 NNE 1024,0 10 0,0
18.10.2018 23:00:00 2,6 2,0 4 2 7 4 N 1023,7 10 0,0
18.10.2018 22:00:00 3,7 3,4 5 3 7 4 N 1023,3 10 0,0
18.10.2018 21:00:00 4,9 4,6 0 0 4 2 N 1022,8 10 0,0
18.10.2018 20:00:00 6,8 5,9 0 0 7 4 N 1022,1 10 0,0
18.10.2018 19:00:00 11,2 7,1 5 3 11 6 NW 1021,5 10 0,0
18.10.2018 18:00:00 12,9 7,3 5 3 22 12 NW 1020,8 10 0,0
18.10.2018 17:00:00 14,8 7,6 15 8 25 14 NNW 1020,0 10 0,0
18.10.2018 16:00:00 15,9 8,4 13 7 25 14 NNW 1019,6 10 0,0
18.10.2018 15:00:00 16,1 7,3 15 8 25 14 NNW 1019,3 10 0,0
18.10.2018 14:00:00 15,2 9,3 15 8 25 14 NW 1019,5 10 0,0
18.10.2018 13:00:00 13,6 13,6 5 3 11 6 NW 1019,6 8 0,0
18.10.2018 12:00:00 12,3 12,3 5 3 14 8 NW 1019,6 5 0,0
18.10.2018 11:00:00 11,1 11,1 5 3 14 8 NW 1019,6 2,0 0,0
18.10.2018 10:00:00 9,8 9,8 4 2 14 8 - 1019,3 0,2 0,0
18.10.2018 09:00:00 8,6 8,6 5 3 11 6 WNW 1019,1 0,1 0,0
18.10.2018 08:00:00 7,0 7,0 0 0 0 0 N 1018,8 0,3 0,0
18.10.2018 07:00:00 6,2 6,2 0 0 4 2 N 1018,5 2,0 0,0
18.10.2018 06:00:00 5,4 5,4 0 0 4 2 N 1018,8 0,1 0,0
18.10.2018 05:00:00 6,2 6,2 2 1 4 2 NNW 1018,8 - 0,0
18.10.2018 04:00:00 5,6 5,6 4 2 7 4 NNE 1019,0 - 0,0
18.10.2018 03:00:00 6,3 6,3 4 2 4 2 N 1019,2 0,1 0,0
18.10.2018 02:00:00 7,6 7,6 4 2 4 2 - 1019,5 - 0,0
18.10.2018 01:00:00 7,9 7,9 0 0 4 2 N 1020,0 - 0,0
18.10.2018 00:00:00 7,2 7,2 0 0 4 2 N 1020,2 - 0,0
17.10.2018 23:00:00 6,5 6,4 2 1 4 2 - 1020,3 5 0,0
17.10.2018 22:00:00 7,2 7,1 2 1 4 2 - 1020,5 9 0,0

tt = Température de l'air
td = dewpoint
ff = Vitesse du vent
fx = gusts
dd = Direction du vent
ppp = reduced air pressure
vv = visibility
rr = Quantités de précipitations

stations d'obs. à proximité